This demonstration page uses our WeatherBlox Daily Observations layout. Learn more.

Left ArrowRight Arrow

Hourly Observations for May 1, 2016

Temp ( °F °C ) Dew Point ( °F °C ) Humidity (%) Winds ( mph kmh ) Pressure ( in mb ) Visibility ( mi km ) Precip ( " mm )
12:53 am 00:53 Clear 59 15 42 5.6 54 54 N 8 13 29.94 1014 10 16 0.00 0.00
1:53 am 01:53 Clear 65 18.3 37 2.8 36 36 N 9 15 29.92 1013 10 16 0.00 0.00
2:53 am 02:53 Clear 66 18.9 36 2.2 33 33 N 13 20 29.91 1013 10 16 0.00 0.00
3:53 am 03:53 Clear 66 18.9 36 2.2 33 33 N 12 19 29.90 1013 10 16 0.00 0.00
4:53 am 04:53 Clear 66 18.9 36 2.2 33 33 N 12 19 29.89 1012 10 16 0.00 0.00
5:53 am 05:53 Clear 65 18.3 36 2.2 34 34 N 14 22 29.88 1012 10 16 0.00 0.00
6:53 am 06:53 Sunny 64 18 36 2 34 34 N 15 24 N/A 2 3 0.00 0.00
7:53 am 07:53 Sunny 68 20 38 3.3 33 33 N 13 20 29.89 1012 10 16 0.00 0.00
8:53 am 08:53 Sunny 71 21.7 38 3.3 30 30 N 16 26 29.88 1012 10 16 0.00 0.00
9:53 am 09:53 Sunny 74 23.3 39 3.9 28 28 N 15 24 29.88 1012 10 16 0.00 0.00
10:53 am 10:53 Sunny 76 24.4 40 4.4 27 27 NNW 8 13 29.86 1011 10 16 0.00 0.00
11:53 am 11:53 Sunny 80 26.7 40 4.4 24 24 undefined N/A 29.85 1011 10 16 0.00 0.00
12:53 pm 12:53 Sunny 80 26.7 39 3.9 23 23 NE 5 7 29.84 1011 10 16 0.00 0.00
1:53 pm 13:53 Sunny 82 27.8 40 4.4 22 22 VRB 7 11 29.83 1010 10 16 0.00 0.00
2:53 pm 14:53 Sunny 83 28.3 37 2.8 19 19 VRB 3 6 29.82 1010 10 16 0.00 0.00
3:53 pm 15:53 Sunny 85 29.4 40 4.4 20 20 VRB 3 6 29.81 1009 10 16 0.00 0.00
4:53 pm 16:53 Sunny 81 27 36 2 20 20 NNE 23 37 29.91 1013 10 16 0.00 0.00
5:53 pm 17:53 Sunny 84 28.9 37 2.8 19 19 W 6 9 29.79 1009 10 16 0.00 0.00
6:53 pm 18:53 Sunny 82 27.8 40 4.4 22 22 SW 6 9 29.78 1009 10 16 0.00 0.00
7:53 pm 19:53 Sunny 75 23.9 46 7.8 36 36 W 3 6 29.79 1009 10 16 0.00 0.00
8:53 pm 20:53 Clear 71 21.7 46 7.8 41 41 Calm 29.81 1010 10 16 0.00 0.00
9:53 pm 21:53 Clear 67 19.4 50 10 55 55 Calm 29.84 1011 10 16 0.00 0.00
10:53 pm 22:53 Clear 64 17.8 50 10 60 60 Calm 29.88 1012 10 16 0.00 0.00
11:53 pm 23:53 Clear 62 16.7 49 9.4 62 62 NNE 5 7 29.88 1012 10 16 0.00 0.00

Powered by AerisWeather